sat.trackr.live / text

‹ back to catalog

XINGCHI-1 02B

NORAD 58498 · 2023-187C

PAYLOAD ACTIVE UNKNOWN

§ Identity

Operator
Country
PRC
Launch date
2023-12-04
Launch site
JSC
Launch vehicle
Mass (kg)
RCS (m²)

External: N2YO · Heavens-Above · Gunter

§ Orbital elements

Epoch: 2026-09-21T21:59:40.283808Z

Period
96.90 min
Inclination
97.9251°
Eccentricity
0.0010608
Mean motion
14.86034640 rev/d
Perigee alt
602.9 km
Apogee alt
617.8 km
Semi-major
6,988.5 km
B*
9.7570e-5
RAAN
348.6549°
Arg perigee
176.6605°
Mean anomaly
183.4683°
Rev number
15,154

§ Raw data

XINGCHI-1 02B1 58498U 23187C   26264.91643847  .00000799  00000+0  97570-4 0  99932 58498  97.9251 348.6549 0010608 176.6605 183.4683 14.86034640151549

JSON: /api/v1/satellites/58498 · /tle

For live sub-satellite position, see the globe view (requires WebGL).

§ Visibility from observer

Set your observer location to see the next 7 days of passes ≥ 10°. The values pass through the URL so the page stays shareable.

No JS? Fill the form by hand. The geolocation button needs JavaScript.